Simultaneous Nadir Overpasses (SNOs) Predictions

Prediction of SNOs between GOES-16 and NOAA-19 Satellite Orbit:

Table of predicted SNOs for the next 14.0 days since TLE Epoch: 5/12/2017
Index Date Time (GOES-16) GOES-16 Lat,Lon NOAA-19 Lat,Lon Distance(km) Time Diff (sec)
1 05/13/2017 08:58:11 0.00, -89.54 -0.69, -86.59 336.54 80
2 05/15/2017 21:19:52 0.00, -89.53 -0.51, -91.75 253.70 80
3 05/16/2017 21:11:05 0.00, -89.54 0.16, -88.97 65.78 80
4 05/17/2017 20:59:38 0.01, -89.55 0.77, -86.18 385.25 80
5 05/20/2017 09:21:11 -0.01, -89.63 0.38, -91.31 192.00 80
6 05/21/2017 09:07:04 -0.01, -89.64 -0.28, -88.53 127.56 80
7 05/22/2017 08:55:38 -0.01, -89.65 -0.94, -85.74 447.14 80
8 05/23/2017 21:28:43 0.01, -89.64 -0.90, -93.68 460.91 80
9 05/24/2017 21:17:16 0.02, -89.65 -0.28, -90.89 141.16 80
10 05/25/2017 21:08:29 0.02, -89.67 0.40, -88.11 178.62 80




NCC Satellite Simultaneous Nadir Overpasses (SNOs) Prediction Service
